Weather History for Scottsboro, AL

Change the Weather History Date:

Thursday, August 1, 2013

  Actual Average (KHSV) Record (KHSV)
Temperature  
Mean Temperature 78 °F 81 °F  
Max Temperature 86 °F 91 °F 104 °F (1935)
Min Temperature 69 °F 70 °F 58 °F (1925)
Degree Days  
Heating Degree Days 0 0  
Month to date heating degree days 0  
Since 1 June heating degree days 1  
Since 1 July heating degree days 0  
Cooling Degree Days 14 16  
Month to date cooling degree days 16  
Year to date cooling degree days 1141  
Since 1 June cooling degree days 878  
Growing Degree Days 28 (Base 50)    
Moisture  
Dew Point 70 °F    
Average Humidity 81    
Maximum Humidity 100    
Minimum Humidity 51    
Precipitation  
Precipitation 0.01 in 0.12 in 2.40 in (1919)
Month to date precipitation 0.12  
Year to date precipitation 32.83  
Snow  
Snow 0.00 in - - ()
Month to date snowfall  
Since 1 June snowfall  
Since 1 July snowfall  
Snow Depth -    
Sea Level Pressure  
Sea Level Pressure 30.00 in    
Wind  
Wind Speed 3 mph (NNW)    
Max Wind Speed 12 mph    
Max Gust Speed 16 mph    
Visibility 9 miles    
Events Rain    
T = Trace of Precipitation, MM = Missing Value Source: NWS Daily Summary

Daily Weather History Graph

Daily Weather History Graph

Search for Another Location

Airport:

Trip Planner

Search our weather history database for the weather conditions in past years. The results will help you decide how hot, cold, wet, or windy it might be!

Date:

Astronomy

Aug. 01, 2013 Rise Set
Actual Time 5:54 AM CDT 7:45 PM CDT
Civil Twilight 5:26 AM CDT 8:13 PM CDT
Nautical Twilight 4:53 AM CDT 8:46 PM CDT
Astronomical Twilight 4:17 AM CDT 9:22 PM CDT
Moon 1:31 AM CDT (8/1) 3:52 PM CDT (8/1)
Length of Visible Light 14h 46m
Length of Day
13h 51m
Waning Crescent, 23% of the Moon is Illuminated
Aug 1
Waning Crescent
Aug 6
New
Aug 14
First Quarter
Aug 20
Full
Aug 28
Last Quarter

Hourly Weather History & Observations

Time (CDT) Temp. Heat Index Dew Point Humidity Pressure Visibility Wind Dir Wind Speed Gust Speed Precip Events Conditions
12:15 AM 71.6 °F - 71.6 °F 100% 29.98 in 10.0 mi Calm Calm - N/A   Mostly Cloudy
12:35 AM 71.6 °F - 71.6 °F 100% 29.98 in 10.0 mi Calm Calm - 0.01 in   Overcast
12:55 AM 71.6 °F - 71.6 °F 100% 29.98 in 10.0 mi Calm Calm - 0.01 in   Mostly Cloudy
1:15 AM 71.6 °F - 71.6 °F 100% 29.99 in 10.0 mi Calm Calm - N/A   Partly Cloudy
1:35 AM 71.6 °F - 71.6 °F 100% 29.99 in 10.0 mi Calm Calm - N/A   Mostly Cloudy
1:55 AM 71.6 °F - 71.6 °F 100% 29.99 in 10.0 mi Calm Calm - N/A   Overcast
2:15 AM 71.6 °F - 71.6 °F 100% 29.98 in 8.0 mi Calm Calm - N/A   Overcast
2:35 AM 71.6 °F - 71.6 °F 100% 29.98 in 9.0 mi SSW 3.5 mph - N/A   Overcast
2:55 AM 71.6 °F - 71.6 °F 100% 29.98 in 10.0 mi SW 3.5 mph - N/A   Overcast
3:15 AM 71.6 °F - 71.6 °F 100% 29.98 in 10.0 mi Calm Calm - N/A   Overcast
3:35 AM 71.6 °F - 71.6 °F 100% 29.98 in 10.0 mi Calm Calm - N/A   Overcast
3:55 AM 71.6 °F - 71.6 °F 100% 29.98 in 10.0 mi SSW 3.5 mph - N/A   Overcast
4:15 AM 71.6 °F - 71.6 °F 100% 29.98 in 10.0 mi SSW 3.5 mph - N/A   Overcast
4:35 AM 71.6 °F - 71.6 °F 100% 29.98 in 10.0 mi Calm Calm - N/A   Overcast
4:55 AM 71.6 °F - 71.6 °F 100% 29.98 in 10.0 mi Calm Calm - N/A   Overcast
5:15 AM 71.6 °F - 71.6 °F 100% 29.99 in 10.0 mi SW 3.5 mph - N/A   Overcast
5:35 AM 71.6 °F - 71.6 °F 100% 29.99 in 10.0 mi Calm Calm - N/A   Overcast
5:55 AM 71.6 °F - 71.6 °F 100% 30.00 in 10.0 mi SSW 5.8 mph - N/A   Overcast
6:15 AM 71.6 °F - 71.6 °F 100% 30.00 in 10.0 mi SW 3.5 mph - N/A   Overcast
6:35 AM 71.6 °F - 71.6 °F 100% 30.01 in 7.0 mi Calm Calm - N/A   Overcast
6:55 AM 71.6 °F - 71.6 °F 100% 30.01 in 3.0 mi Calm Calm - N/A   Overcast
7:15 AM 71.6 °F - 71.6 °F 100% 30.01 in 3.0 mi West 3.5 mph - N/A   Overcast
7:35 AM 71.6 °F - 71.6 °F 100% 30.01 in 7.0 mi Calm Calm - N/A   Overcast
7:55 AM 73.4 °F - 71.6 °F 94% 30.02 in 5.0 mi Calm Calm - N/A   Overcast
8:15 AM 73.4 °F - 73.4 °F 100% 30.01 in 6.0 mi Calm Calm - N/A   Overcast
8:35 AM 73.4 °F - 73.4 °F 100% 30.02 in 10.0 mi Calm Calm - N/A   Mostly Cloudy
8:55 AM 75.2 °F - 73.4 °F 94% 30.02 in 10.0 mi Calm Calm - N/A   Mostly Cloudy
9:15 AM 77.0 °F - 71.6 °F 83% 30.02 in 10.0 mi WNW 6.9 mph - N/A Rain Light Rain
9:35 AM 77.0 °F - 71.6 °F 83% 30.02 in 10.0 mi Calm Calm - N/A   Overcast
9:55 AM 80.6 °F 83.9 °F 69.8 °F 70% 30.01 in 10.0 mi North 8.1 mph - N/A   Mostly Cloudy
10:15 AM 80.6 °F 83.9 °F 69.8 °F 70% 30.01 in 10.0 mi NW 4.6 mph - N/A   Scattered Clouds
10:35 AM 80.6 °F 83.2 °F 68.0 °F 65% 30.01 in 10.0 mi NNW 5.8 mph - N/A   Partly Cloudy
10:55 AM 80.6 °F 83.2 °F 68.0 °F 65% 30.01 in 10.0 mi NW 5.8 mph - N/A   Partly Cloudy
11:15 AM 82.4 °F 85.4 °F 68.0 °F 62% 30.02 in 9.0 mi NNW 6.9 mph - N/A   Partly Cloudy
11:35 AM 82.4 °F 85.4 °F 68.0 °F 62% 30.02 in 9.0 mi NNW 5.8 mph - N/A   Scattered Clouds
11:55 AM 82.4 °F 85.4 °F 68.0 °F 62% 30.02 in 9.0 mi NNE 8.1 mph - N/A   Scattered Clouds
12:15 PM 84.2 °F 87.3 °F 68.0 °F 58% 30.01 in 10.0 mi NNE 8.1 mph - N/A   Partly Cloudy
12:35 PM 84.2 °F 87.3 °F 68.0 °F 58% 30.01 in 10.0 mi North 10.4 mph - N/A   Scattered Clouds
12:55 PM 84.2 °F 87.3 °F 68.0 °F 58% 30.01 in 10.0 mi North 9.2 mph 16.1 mph N/A   Scattered Clouds
1:15 PM 84.2 °F 87.3 °F 68.0 °F 58% 30.00 in 10.0 mi NNE 9.2 mph - N/A   Scattered Clouds
1:35 PM 84.2 °F 87.3 °F 68.0 °F 58% 30.00 in 10.0 mi NNE 11.5 mph 16.1 mph N/A   Scattered Clouds
1:55 PM 84.2 °F 87.3 °F 68.0 °F 58% 29.99 in 10.0 mi North 8.1 mph - N/A   Scattered Clouds
2:15 PM 86.0 °F 89.4 °F 68.0 °F 55% 29.99 in 10.0 mi North 6.9 mph - N/A   Scattered Clouds
2:35 PM 84.2 °F 86.6 °F 66.2 °F 55% 29.99 in 10.0 mi NNW 4.6 mph - N/A   Partly Cloudy
2:55 PM 86.0 °F 89.4 °F 68.0 °F 55% 29.99 in 10.0 mi North 8.1 mph - N/A   Scattered Clouds
3:15 PM 86.0 °F 89.4 °F 68.0 °F 55% 29.98 in 10.0 mi North 6.9 mph - N/A   Scattered Clouds
3:35 PM 86.0 °F 89.4 °F 68.0 °F 55% 29.97 in 10.0 mi NNE 5.8 mph - N/A   Partly Cloudy
3:55 PM 86.0 °F 89.4 °F 68.0 °F 55% 29.97 in 10.0 mi NW 5.8 mph - N/A   Partly Cloudy
4:15 PM 86.0 °F 88.2 °F 66.2 °F 51% 29.97 in 10.0 mi North 8.1 mph - N/A   Partly Cloudy
4:35 PM 84.2 °F 87.3 °F 68.0 °F 58% 29.97 in 10.0 mi North 6.9 mph - N/A   Partly Cloudy
4:55 PM 84.2 °F 88.4 °F 69.8 °F 62% 29.97 in 10.0 mi North 4.6 mph - N/A   Partly Cloudy
5:15 PM 84.2 °F 88.4 °F 69.8 °F 62% 29.97 in 10.0 mi North 4.6 mph - N/A   Partly Cloudy
5:35 PM 84.2 °F 87.3 °F 68.0 °F 58% 29.97 in 10.0 mi NNW 4.6 mph - N/A   Partly Cloudy
5:55 PM 84.2 °F 88.4 °F 69.8 °F 62% 29.96 in 10.0 mi North 3.5 mph - N/A   Clear
6:15 PM 84.2 °F 88.4 °F 69.8 °F 62% 29.97 in 10.0 mi North 5.8 mph - N/A   Scattered Clouds
6:35 PM 84.2 °F 87.3 °F 68.0 °F 58% 29.97 in 10.0 mi NNE 8.1 mph - N/A   Overcast
6:55 PM 82.4 °F 86.3 °F 69.8 °F 66% 29.97 in 10.0 mi North 6.9 mph - N/A   Mostly Cloudy
7:15 PM 82.4 °F 86.3 °F 69.8 °F 66% 29.98 in 10.0 mi Calm Calm - N/A   Scattered Clouds
7:35 PM 78.8 °F - 71.6 °F 78% 29.98 in 10.0 mi North 3.5 mph - N/A   Partly Cloudy
7:55 PM 77.0 °F - 71.6 °F 83% 29.98 in 10.0 mi NNW 3.5 mph - N/A   Clear
8:15 PM 75.2 °F - 71.6 °F 89% 29.99 in 10.0 mi Calm Calm - N/A   Clear
8:35 PM 75.2 °F - 71.6 °F 89% 29.99 in 10.0 mi North 3.5 mph - N/A   Clear
8:55 PM 75.2 °F - 69.8 °F 83% 30.00 in 10.0 mi Calm Calm - N/A   Scattered Clouds
9:15 PM 73.4 °F - 69.8 °F 88% 30.00 in 10.0 mi Calm Calm - N/A   Partly Cloudy
9:35 PM 73.4 °F - 69.8 °F 88% 30.01 in 10.0 mi Calm Calm - N/A   Partly Cloudy
9:55 PM 73.4 °F - 68.0 °F 83% 30.02 in 10.0 mi ENE 3.5 mph - N/A   Partly Cloudy
10:15 PM 73.4 °F - 69.8 °F 88% 30.02 in 9.0 mi Calm Calm - N/A   Clear
10:35 PM 71.6 °F - 68.0 °F 88% 30.02 in 10.0 mi Calm Calm - N/A   Clear
10:55 PM 71.6 °F - 68.0 °F 88% 30.02 in 7.0 mi NE 3.5 mph - N/A   Clear
11:15 PM 71.6 °F - 68.0 °F 88% 30.02 in 8.0 mi NE 3.5 mph - N/A   Clear
11:35 PM 71.6 °F - 68.0 °F 88% 30.02 in 8.0 mi Calm Calm - N/A   Clear
11:55 PM 69.8 °F - 68.0 °F 94% 30.03 in 7.0 mi Calm Calm - N/A   Clear